Flag for Greenland Weather past 2 weeks in Ittoqqortoormiit, Greenland

Now
24 °F

Overcast.


Feels Like: 17 °F
Forecast: 25 / 28 °F
Wind: 6 mph from Northeast

Location: Scoresbysund

Current Time: Oct 25, 2014 at 3:18:55 PM

Latest Report: Oct 25, 2014 at 2:00 PM


Visibility: 31 mi

Pressure: 29.21 "Hg

Humidity: 63%

Dew point: 13 °F

Location of IttoqqortoormiitLocation

Historic Weather in Ittoqqortoormiit — Graph

°F

Ittoqqortoormiit temperature yesterday

Maximum temperature yesterday: 22 °F (at 2:00 PM)
Minimum temperature yesterday: 18 °F (at 6:00 PM)
Average temperature yesterday: 20 °F

Past Weeks' High & Low Weather Summary

 TemperatureHumidityPressure
High30 °F (Oct 12, 3:00 PM)100% (Oct 14, 8:00 AM)30.42 "Hg (Oct 14, 8:00 AM)
Low17 °F (Oct 16, 9:00 AM)39% (Oct 12, 12:00 PM)29.15 "Hg (Oct 22, 5:00 PM)
Average23 °F76%29.89 "Hg
* Reported Oct 10 1:00 PM — Oct 25 1:00 PM, Ittoqqortoormiit, Weather by CustomWeather, © 2014

Note: Actual official high and low records may vary slightly from our data, if they occured in-between our weather recording intervals... More about our weather records

Advertising

Ittoqqortoormiit weather history for previous 24 hours

 ConditionsComfort  
Time TempWeatherWind HumidityBarometerVisibility
1:00 PM
Oct 25
24 °FOvercast.3 mph60%29.21 "Hg31 mi
12:00 PM23 °FOvercast.1 mph63%29.21 "Hg31 mi
11:00 AM22 °FOvercast.6 mph66%29.21 "Hg31 mi
10:00 AM22 °FOvercast.3 mph66%29.21 "Hg31 mi
9:00 AM21 °FOvercast.1 mph74%29.21 "Hg31 mi
8:00 AM21 °FOvercast.6 mph65%29.21 "Hg31 mi
7:00 AM20 °FOvercast.6 mph68%29.21 "Hg31 mi
6:00 AM20 °FOvercast.9 mph67%29.21 "Hg31 mi
5:00 AM20 °FPassing clouds.8 mph66%29.21 "Hg31 mi
4:00 AM19 °FPassing clouds.8 mph69%29.18 "Hg31 mi
3:00 AM19 °FPassing clouds.6 mph67%29.21 "Hg31 mi
2:00 AM19 °FOvercast.8 mph69%29.21 "Hg31 mi
1:00 AM18 °FPassing clouds.7 mph70%29.21 "Hg31 mi
12:00 AM20 °FOvercast.2 mph66%29.21 "Hg31 mi
11:00 PM
Oct 24
18 °FClear.5 mph68%29.21 "Hg31 mi
10:00 PM18 °FPassing clouds.8 mph69%29.18 "Hg31 mi
9:00 PM20 °FClear.3 mph64%29.18 "Hg31 mi
8:00 PM18 °FClear.8 mph68%29.18 "Hg31 mi
7:00 PM18 °FClear.7 mph71%29.21 "Hg31 mi
6:00 PM18 °FClear.6 mph70%29.21 "Hg31 mi
5:00 PM19 °FClear.8 mph69%29.18 "Hg31 mi
4:00 PM20 °FPassing clouds.7 mph69%29.18 "Hg31 mi
3:00 PM20 °FPassing clouds.7 mph67%29.18 "Hg31 mi
Weather by CustomWeather, © 2014

See weather overviewHow to use our weather pages